TimeCST,TemperatureF,Dew PointF,Humidity,Sea Level PressureIn,VisibilityMPH,Wind Direction,Wind SpeedMPH,Gust SpeedMPH,PrecipitationIn,Events,Conditions,WindDirDegrees,DateUTC
12:53 AM,51.1,41.0,68,30.00,10.0,SSE,3.5,-,0.00,,Overcast,150,2012-11-05 06:53:00
1:53 AM,48.9,42.1,77,29.99,10.0,South,4.6,-,N/A,,Overcast,170,2012-11-05 07:53:00
2:53 AM,48.9,42.1,77,29.96,10.0,South,4.6,-,0.00,,Overcast,190,2012-11-05 08:53:00
3:53 AM,51.1,41.0,68,29.95,10.0,West,8.1,-,N/A,,Overcast,280,2012-11-05 09:53:00
4:53 AM,50.0,43.0,77,29.96,10.0,NNW,12.7,-,N/A,,Overcast,330,2012-11-05 10:53:00
5:20 AM,48.2,44.6,87,29.97,10.0,NNW,9.2,-,N/A,,Overcast,340,2012-11-05 11:20:00
5:51 AM,48.2,44.6,87,29.97,7.0,NNW,6.9,-,N/A,,Overcast,340,2012-11-05 11:51:00
5:53 AM,48.0,45.0,89,29.97,7.0,NNW,9.2,-,N/A,,Overcast,340,2012-11-05 11:53:00
6:53 AM,46.9,44.1,90,29.98,5.0,NNW,11.5,17.3,N/A,,Overcast,340,2012-11-05 12:53:00
7:53 AM,46.9,43.0,86,29.99,5.0,NNW,12.7,-,N/A,,Overcast,340,2012-11-05 13:53:00
8:53 AM,46.0,43.0,89,30.01,2.5,NW,15.0,21.9,N/A,,Overcast,320,2012-11-05 14:53:00
9:08 AM,44.6,42.8,93,30.01,2.0,NNW,12.7,21.9,N/A,,Overcast,330,2012-11-05 15:08:00
9:29 AM,44.6,42.8,93,30.01,1.5,NNW,15.0,20.7,N/A,,Overcast,340,2012-11-05 15:29:00
9:53 AM,45.0,44.1,97,30.02,1.2,NNW,12.7,19.6,N/A,,Overcast,330,2012-11-05 15:53:00
10:21 AM,44.6,42.8,93,30.03,1.5,NW,15.0,20.7,N/A,,Overcast,320,2012-11-05 16:21:00
10:53 AM,45.0,43.0,93,30.04,1.5,NNW,12.7,23.0,0.00,Rain,Light Rain,330,2012-11-05 16:53:00
11:10 AM,44.6,42.8,93,30.03,1.5,NNW,12.7,-,0.00,Rain,Light Rain,330,2012-11-05 17:10:00
11:38 AM,44.6,42.8,93,30.03,1.5,NNW,13.8,21.9,0.00,,Overcast,330,2012-11-05 17:38:00
11:53 AM,45.0,43.0,93,30.04,1.5,NW,11.5,21.9,0.00,,Overcast,320,2012-11-05 17:53:00
12:00 PM,44.6,42.8,93,30.03,2.0,NW,10.4,19.6,N/A,,Overcast,320,2012-11-05 18:00:00
12:22 PM,44.6,42.8,93,30.03,1.8,NNW,10.4,-,N/A,,Overcast,330,2012-11-05 18:22:00
12:44 PM,44.6,42.8,93,30.03,4.0,NNW,8.1,-,N/A,,Overcast,340,2012-11-05 18:44:00
12:53 PM,45.0,43.0,93,30.04,4.0,NNW,9.2,-,N/A,,Overcast,340,2012-11-05 18:53:00
1:14 PM,44.6,42.8,93,30.03,2.5,North,15.0,-,0.00,,Overcast,360,2012-11-05 19:14:00
1:29 PM,44.6,42.8,93,30.03,4.0,North,13.8,-,0.00,,Overcast,360,2012-11-05 19:29:00
1:53 PM,44.1,41.0,89,30.04,5.0,North,13.8,19.6,0.00,,Overcast,350,2012-11-05 19:53:00
2:53 PM,43.0,39.9,89,30.05,5.0,North,13.8,-,N/A,,Overcast,350,2012-11-05 20:53:00
3:53 PM,43.0,39.0,86,30.06,6.0,North,13.8,-,N/A,,Overcast,350,2012-11-05 21:53:00
4:04 PM,42.8,39.2,87,30.06,5.0,North,10.4,-,N/A,,Overcast,360,2012-11-05 22:04:00
4:53 PM,42.1,39.0,89,30.09,4.0,North,12.7,20.7,N/A,,Overcast,350,2012-11-05 22:53:00
5:53 PM,42.1,39.0,89,30.11,6.0,North,12.7,18.4,N/A,,Overcast,360,2012-11-05 23:53:00
6:53 PM,42.1,39.0,89,30.11,5.0,North,9.2,-,N/A,,Overcast,360,2012-11-06 00:53:00
7:53 PM,42.1,37.9,85,30.11,6.0,NNE,10.4,-,N/A,,Overcast,20,2012-11-06 01:53:00
8:38 PM,42.8,37.4,81,30.10,6.0,NNE,6.9,-,N/A,,Overcast,30,2012-11-06 02:38:00
8:45 PM,42.8,37.4,81,30.10,6.0,North,9.2,-,N/A,,Overcast,10,2012-11-06 02:45:00
8:53 PM,42.1,37.9,85,30.11,6.0,North,6.9,-,N/A,,Overcast,10,2012-11-06 02:53:00
9:53 PM,42.1,37.9,85,30.13,6.0,NNW,4.6,-,N/A,,Overcast,340,2012-11-06 03:53:00
10:44 PM,41.0,37.4,87,30.10,5.0,North,3.5,-,N/A,,Overcast,360,2012-11-06 04:44:00
10:53 PM,42.1,37.9,85,30.11,5.0,North,5.8,-,N/A,,Overcast,10,2012-11-06 04:53:00
11:53 PM,41.0,39.0,93,30.10,3.0,Calm,Calm,-,N/A,,Overcast,0,2012-11-06 05:53:00